Location: B?lite?ti
(46.2833°N, 22.7333°E)
Time: 17:24:56
(UTC+00:00)

CZ-4 R/B - Pass Details

Date: 24 January 2021
Orbit: 530 x 599 km, 97.7° (Epoch: 01 March)

Event Time Altitude Azimuth Distance (km) Brightness Sun altitude
Rises 17:51:31 0° 196° (SSW) 2,786 5.1 -25.6°
Reaches altitude 10° 17:54:00 10° 209° (SSW) 1,881 4.4 -26.1°
Maximum altitude 17:57:21 25° 265° (W) 1,183 3.7 -26.6°
Drops below altitude 10° 18:00:41 10° 321° (NW) 1,860 4.5 -27.2°
Sets 18:03:07 0° 335° (NNW) 2,748 5.2 -27.6°
